Regional Weather Roundup
Issued by NWS Jackson, KY

Home | Current Version | Previous Version | Text Only | Print | Product List | Glossary Off
Versions: 1 2 3 4 5 6 7 8 9 10 11 12 13 14 15 16 17 18 19 20 21 22 23 24 25 26 27 28

000
ASUS43 KJKL 251010
RWRJKL

EAST KENTUCKY HOURLY WEATHER ROUNDUP
NATIONAL WEATHER SERVICE JACKSON KY
600 AM EDT TUE JUL 25 2017

NOTE: "FAIR" INDICATES FEW OR NO CLOUDS BELOW 12,000 FEET WITH
NO SIGNIFICANT WEATHER AND/OR OBSTRUCTIONS TO VISIBILITY.

* THESE REPORTS ARE NOT UNDER NWS QUALITY CONTROL AND MAY NOT
  REPORT WEATHER SUCH AS PRECIPITATION AND FOG.

KYZ079-080-083-085-087-088-110-112-115-119-120-251100
...EASTERN KENTUCKY...

CITY           SKY/WX    TMP DP  RH WIND       PRES   REMARKS
JACKSON        CLEAR     65  63  93 CALM      30.13R
LONDON         MOCLDY    69  67  93 NE5       30.11R
SOMERSET*      CLEAR     68  68 100 CALM      30.10S
MONTICELLO*    PTCLDY    70  70 100 N10       30.11R FOG
WILLIAMSBURG*  SUNNY     68  68 100 CALM      30.11R
MIDDLESBORO*   CLOUDY    68  68 100 CALM      30.12R
PIKE CO APT*   CLOUDY    66  66 100 N6        30.14R
BIG SANDY APT* CLOUDY    65  65 100 CALM      30.14R
MOREHEAD APT*  CLOUDY    66  57  72 VRB6G15   30.15R
$$

KYZ035-036-041-042-044-050-067-078-099-251100
...CENTRAL KENTUCKY...

CITY           SKY/WX    TMP DP  RH WIND       PRES   REMARKS
MT STERLING*   CLEAR     64  61  88 E7        30.15R
FLEMING/MASON* PTCLDY    62  59  90 E6        30.16R
DANVILLE*      PTCLDY    66  64  94 CALM      30.12R
LEXINGTON      CLEAR     66  60  81 NE9       30.12R
FRANKFORT      CLEAR     67  59  75 NE7       30.12R
LOUISVILLE     PTCLDY    70  62  76 E8        30.11R
LEBANON*         N/A     68  66  94 NE6       30.11R
GLASGOW*       CLEAR     72  72  99 NE5       30.07R
BOWLING GREEN  CLEAR     74  72  93 CALM      30.06R
$$

KYZ091>093-OHZ055-061-077-WVZ005-015-034-035-042-251100
...SOUTHERN OHIO/WEST VIRGINIA...

CITY           SKY/WX    TMP DP  RH WIND       PRES   REMARKS
COVINGTON      PTCLDY    65  61  87 E10       30.15R
COLUMBUS       PTCLDY    59  58  96 CALM      30.15R
DAYTON         CLEAR     57  55  93 CALM      30.18R
WILMINGTON     CLEAR     57  57 100 NE3       30.16R FOG
HUNTINGTON     CLEAR     64  58  80 NE5       30.14R
CHARLESTON     PTCLDY    64  58  80 CALM      30.13R
PINEVILLE*     CLOUDY    67  66  96 MISG      30.18R
BECKLEY        PTCLDY    64  62  93 N3        30.16R
BLUEFIELD      CLOUDY    65  64  97 CALM      30.18R FOG
LOGAN CO APT*  CLOUDY    66  63  88 CALM      30.14R
$$

VAZ002-007-008-TNZ017-027-036-066-071-251100
...SOUTHWEST VIRGINIA/EAST TENNESSEE...

CITY           SKY/WX    TMP DP  RH WIND       PRES   REMARKS
WISE*          MOCLDY    68  68 100 N3        30.19R
JONESVILLE*    FOG       66  66 100 CALM      30.14R VSB<1/4
ABINGDON*      CLEAR     68  68  99 CALM      30.14R
BRISTOL        PTCLDY    67  67 100 CALM      30.12R
MORRISTOWN*    SUNNY     70  68  94 CALM      30.09R
SEVIERVILLE*   SUNNY     66  66 100 CALM      30.09R
KNOXVILLE      CLOUDY    72  68  87 CALM      30.07R
LAFOLLETTE*    SUNNY     68  66  94 CALM      30.13R FOG
OAK RIDGE      FOG       69  68  96 CALM      30.10R VSB 1/2
CROSSVILLE     CLEAR     65  64  97 CALM      30.14R
NASHVILLE      PTCLDY    76  74  93 CALM      30.06R
$$

...KEY TO REMARKS...
VSB - VISIBILITY IN MILES
WCI - WIND CHILL INDEX
HX  - HEAT INDEX

$$




USA.gov is the U.S. government's official web portal to all federal, state and local government web resources and services.